Hourly Data Report for February 13, 2021

OTTAWA INTL A
ONTARIO
Current Station Operator: NAVCAN

45°19'00.000" N
75°40'00.000" W
114.90 m
6106001
71628
YOW

Download Data

Hourly Data (February 2021)
Hourly Data Report for February 13, 2021
TIME
LST
Temp Definition
°C
Dew Point Definition
°C
Rel Hum Definition
%
Precip. Amount Definition
mm

Wind Dir Definition
10's deg

Wind Spd Definition
km/h
Visibility Definition
km
Stn Press Definition
kPa
Hmdx Definition


Wind Chill Definition


Weather Definition


00:00 -19.2 -23.9 67   26 4 24.1 101.72   -23 LegendNANA
01:00 -17.9 -24.1 59   32 16 24.1 101.73   -27 Clear
02:00 -20.5 -24.6 70   27 8 24.1 101.78   -27 LegendNANA
03:00 -20.7 -24.6 72   30 12 24.1 101.76   -29 LegendNANA
04:00 -20.6 -24.8 70   28 10 24.1 101.73   -28 Clear
05:00 -21.9 -25.2 75   25 8 24.1 101.76   -28 LegendNANA
06:00 -22.3 -25.9 73   31 11 24.1 101.82   -30 LegendNANA
07:00 -21.8 -25.2 74   29 9 24.1 101.83   -29 Mainly Clear
08:00 -21.8 -25.0 75   32 12 24.1 101.84   -30 LegendNANA
09:00 -18.6 -23.6 65   34 12 24.1 101.82   -26 LegendNANA
10:00 -17.3 -23.3 60   35 14 24.1 101.77   -25 Mostly Cloudy
11:00 -16.9 -23.2 59   31 8 24.1 101.78   -23 LegendNANA
12:00 -16.0 -22.7 57   26 7 24.1 101.76   -21 LegendNANA
13:00 -15.3 -22.4 55   28 6 24.1 101.71   -20 Mostly Cloudy
14:00 -14.4 -21.7 54   33 12 24.1 101.58   -21 LegendNANA
15:00 -13.5 -21.1 53   36 3 24.1 101.57   -16 LegendNANA
16:00 -12.8 -20.4 53   4 12 24.1 101.49   -19 Mostly Cloudy
17:00 -12.6 -19.4 57   4 14 24.1 101.39   -20 LegendNANA
18:00 -13.0 -20.0 56   6 10 24.1 101.38   -19 LegendNANA
19:00 -13.2 -20.1 56   5 10 24.1 101.36   -19 Cloudy
20:00 -13.2 -19.9 58   4 10 24.1 101.28   -19 LegendNANA
21:00 -13.2 -19.8 58   5 10 24.1 101.24   -19 LegendNANA
22:00 -13.5 -19.4 62   4 10 16.1 101.17   -19 Snow
23:00 -13.8 -19.5 63   6 16 8.1 101.05   -22 Snow

Notes on Data Quality.

Legend

  • E = Estimated
  • M = Missing
  • NA = Not Available*
  • [empty] = Indicates an unobserved value
Date modified: